Regional Weather Roundup
Issued by NWS

Home | Current Version | Previous Version | Graphics & Text | Print | Product List | Glossary On
Versions: 1 2 3 4 5 6 7 8 9 10 11 12 13 14 15 16 17 18 19 20 21 22 23 24 25 26 27 28 29 30 31 32 33 34 35 36 37 38 39 40 41 42 43 44 45 46 47 48 49 50
000
ASUS45 KTFX 250404
RWRMT
MONTANA HOURLY WEATHER ROUNDUP
NATIONAL WEATHER SERVICE GREAT FALLS MT
904 PM MST WED DEC 24 2014

NOTE: "FAIR" INDICATES FEW OR NO CLOUDS BELOW 12000 FEET WITH NO
SIGNIFICANT WEATHER AND/OR OBSTRUCTIONS TO VISIBILITY.

* THESE STATIONS ARE NOT UNDER NWS QUALITY CONTROL. THEY DO NOT
   REPORT WEATHER SUCH AS PRECIPITATION OR FOG.

MTZ001>007-043-250500-
WEST OF THE DIVIDE
CITY           SKY/WX    TMP DP  RH WIND       PRES   REMARKS
KALISPELL      CLOUDY    32  30  92 N8        29.61R WCI  25
MISSOULA       CLOUDY    34  30  85 NW9       29.57R WCI  27
BUTTE          SNOW      28  27  96 CALM      29.42S VSB 1/2
MULLAN PASS    LGT SNOW  25  21  85 N8        29.54R VSB M1/4 WCI  16
* ESSEX        N/A       29  28  96 N/A        N/A
* LINCOLN      N/A       29  27  92 E7G12      N/A   WCI  22
* LOOKOUT PASS N/A       27  27 100 NE4G12     N/A
* POLSON       N/A       31  31 100 N1         N/A
* RONAN APT    CLOUDY    32  30  92 N7         N/A   WCI  25
* SEELEY LAKE  N/A       31  29  92 NW5        N/A   WCI  26
* THOMP F APT  CLOUDY    23  20  88 N3G9       N/A
$$

MTZ008-052>055-250500-
SOUTHWEST MONTANA
CITY           SKY/WX    TMP DP  RH WIND       PRES   REMARKS
BOZEMAN        LGT SNOW  30  30 100 N9        29.43R VSB 1 1/2 WCI  22
DILLON         LGT SNOW  28  27  96 N3        29.40S VSB 1 1/4
* W YELLOWSTON CLOUDY    21  19  92 N/A        N/A
* THREE FORKS  CLOUDY    34  34 100 S10G18     N/A   WCI  26
* BOULDER HILL N/A       26  23  88 N12G19     N/A   WCI  15
* MONIDA PASS  N/A       22  22 100 E8         N/A   WCI  13
* RAYNOLDS PAS N/A       22   5  48 SE8        N/A   WCI  13
* WHITEHALL    N/A       35  29  79 W5G11      N/A   WCI  31
* WISE RIVER   N/A       28  27  96 SE5        N/A   WCI  22
$$

MTZ009>010-012-014-046-048-049-054-250500-
EAST SLOPES AND CENTRAL MONTANA
CITY           SKY/WX    TMP DP  RH WIND       PRES   REMARKS
CUT BANK       CLOUDY    27  25  92 N14       29.63R WCI  16
GREAT FALLS    LGT SNOW  30  30 100 N20       29.55R VSB 1    WCI  17
HELENA         LGT SNOW  32  28  85 NW8       29.50R VSB 2    WCI  25
MALMSTROM AFB  LGT SNOW  30  30 100 N21       29.57R VSB 1 1/2 WCI  17
* DEARBORN     N/A       31  31 100 VRB8G20    N/A   WCI  24
* EAST GLACIER N/A       23  21  92 E16        N/A   WCI  10
* MONARCH      N/A       26  23  88 NE9        N/A   WCI  17
* PENDROY      N/A       27  27 100 N16G22     N/A   WCI  15
* SWEET GRASS  N/A       27  24  88 NW10       N/A   WCI  18
$$

MTZ011-013-016-021-035-040-045-047-050-051-250500-
NORTH CENTRAL MONTANA
CITY           SKY/WX    TMP DP  RH WIND       PRES   REMARKS
HAVRE          CLOUDY    32  28  85 SE3       29.61R
LEWISTOWN      LGT SNOW  30  28  92 E5        29.50R VSB 1    WCI  25
* N BAR RANCH  FOG       28  27  96 NE15      29.50R VSB 3/4  WCI  16
* CHESTER      N/A       30  25  82 NE8        N/A   WCI  22
* DENTON       N/A       31  30  96 NE9        N/A   WCI  23
* GEYSER       N/A       29  29 100 N12        N/A   WCI  19
* JUDITH GAP   N/A       28  28 100 NW22G29    N/A   WCI  14
* LOMA         N/A       33  32  96 N17G24     N/A   WCI  22
$$

MTZ017>020-022>027-061-062-250500-
NORTHEAST MONTANA
CITY           SKY/WX    TMP DP  RH WIND       PRES   REMARKS
GLASGOW        MOCLDY    28  25  89 NW7       29.54R WCI  21
GLENDIVE       CLOUDY    32  28  85 NW7       29.52R WCI  25
JORDAN         CLOUDY    34  30  85 NW6       29.52R WCI  29
SIDNEY         PTCLDY    28  25  89 W10       29.53R WCI  19
WOLF POINT     MOCLDY    30  21  69 VRB3      29.53R
* BEAVER HILL  N/A       31  29  92 N5         N/A   WCI  26
* CIRCLE       N/A       33  29  85 N/A        N/A
* LINDSAY DVD  N/A       31  29  92 NW9        N/A   WCI  23
* NAVAJO       N/A       23  19  85 NW16       N/A   WCI  10
* SACO         N/A       29  25  85 NW4        N/A
$$

MTZ028>042-056>058-250500-
SOUTHCENTRAL AND SOUTHEAST MONTANA
CITY           SKY/WX    TMP DP  RH WIND       PRES   REMARKS
BAKER          LGT SNOW  30  30 100 N5        29.48S VSB 3    WCI  25
BILLINGS       LGT SNOW  34  32  92 NE10      29.46R WCI  26
LIVINGSTON     CLOUDY    36  28  73 E9        29.41R WCI  29
MILES CITY     LGT SNOW  32  30  92 NE13      29.49S VSB 2    WCI  22
* LAUREL APT   CLOUDY    36  21  54 N5         N/A   WCI  32
* ROUNDUP APT  CLOUDY    30  27  89 N5         N/A   WCI  25
* ALZADA       N/A       31  27  85 NW3        N/A
* HYSHAM       N/A       31  30  96 E9G16      N/A   WCI  23
* LAME DEER    N/A       29  27  92 N8         N/A   WCI  21
* REED POINT   N/A       35  32  89 SW8        N/A   WCI  28
* ROSCOE HILL  N/A       29  23  78 VRB10G15    N/A   WCI  20
$$

REGIONAL REPORTS...DAKOTAS
CITY           SKY/WX    TMP DP  RH WIND       PRES   REMARKS
WILLISTON      PTCLDY    21  19  92 CALM      29.50R
DICKINSON      CLOUDY    34  28  79 NW7       29.46S WCI  28
BEACH          CLOUDY    30  30 100 NW5       29.50R WCI  25
CROSBY         MOCLDY    25  25 100 W9        29.48S WCI  16
WATFORD CITY   CLEAR     23  21  92 W7        29.48S WCI  15
BISMARCK       CLOUDY    30  28  92 W3        29.47S
GRAND FORKS    CLOUDY    30  27  89 S8        29.42F WCI  22
FARGO          CLOUDY    30  27  89 S14       29.47F WCI  19
BUFFALO SD     CLOUDY    34  30  85 N13       29.39R WCI  25
RAPID CITY     CLOUDY    37  28  70 NW10      29.39F WCI  30
$$

REGIONAL REPORTS...WYOMING/IDAHO/WASHINGTON
CITY           SKY/WX    TMP DP  RH WIND       PRES   REMARKS
GILLETTE       CLOUDY    37  25  62 SW15      29.36F WCI  28
SHERIDAN       LGT SNOW  34  27  76 W5        29.40R WCI  29
CODY           CLOUDY    28  21  75 N6        29.38S WCI  21
YELLOWSTONE LA CLOUDY    21  19  92 CALM      29.43F
SALMON         CLOUDY    30  28  92 CALM      29.47S
MULLAN PASS    LGT SNOW  25  21  85 N8        29.54S VSB M1/4 WCI  16
SAND POINT     FOG       32  32 100 CALM      29.71R VSB 2
SPOKANE        CLOUDY    34  30  85 NW7       29.71R WCI  28

$$




USA.gov is the U.S. government's official web portal to all federal, state and local government web resources and services.